EN

Hourly Weather Abejorral

Today, 27 November, Friday

Time Temperature Precipitation Wind Pressure Humidity
00:00 +12°C° 0.1 mm 0 mps 584 mmHg 97%
01:00 +11°C° 0 mm 0 mps 583 mmHg 97%
02:00 +11°C° 0 mm 0 mps 583 mmHg 97%
03:00 +11°C° 0 mm 0 mps 583 mmHg 98%
04:00 +11°C° 0 mm 0 mps 583 mmHg 98%
05:00 +11°C° 0 mm 0 mps 583 mmHg 97%
06:00 +12°C° 0 mm 0 mps 584 mmHg 97%
07:00 +12°C° 0 mm 0 mps 585 mmHg 95%
08:00 +14°C° 0.3 mm 0 mps 586 mmHg 90%
09:00 +16°C° 0.3 mm 0 mps 586 mmHg 85%
10:00 +17°C° 0.3 mm 0 mps 587 mmHg 79%
11:00 +18°C° 0.7 mm 0 mps 587 mmHg 77%
12:00 +19°C° 0.7 mm 0 mps 586 mmHg 74%
13:00 +20°C° 0.7 mm 0 mps 586 mmHg 72%
14:00 +19°C° 1.1 mm 0 mps 585 mmHg 76%
15:00 +18°C° 1.1 mm 0 mps 585 mmHg 79%
16:00 +20°C° 1.1 mm 1 mps 584 mmHg 83%
17:00 +16°C° 1.4 mm 0 mps 584 mmHg 88%
18:00 +15°C° 1.4 mm 0 mps 584 mmHg 92%
19:00 +13°C° 1.4 mm 0 mps 584 mmHg 97%
20:00 +13°C° 1.2 mm 0 mps 584 mmHg 97%
21:00 +13°C° 1.2 mm 0 mps 584 mmHg 97%
22:00 +13°C° 1.2 mm 0 mps 585 mmHg 98%
23:00 +13°C° 1.7 mm 0 mps 584 mmHg 98%

Tomorrow, 28 November, Saturday

Time Temperature Precipitation Wind Pressure Humidity
00:00 +13°C° 1.7 mm 0 mps 584 mmHg 98%
01:00 +12°C° 1.7 mm 0 mps 584 mmHg 99%
02:00 +12°C° 1.4 mm 0 mps 584 mmHg 99%
03:00 +12°C° 1.4 mm 0 mps 584 mmHg 99%
04:00 +12°C° 1.4 mm 0 mps 583 mmHg 98%
05:00 +12°C° 0.1 mm 0 mps 584 mmHg 98%
06:00 +12°C° 0.1 mm 0 mps 584 mmHg 98%
07:00 +13°C° 0.1 mm 0 mps 585 mmHg 98%
08:00 +14°C° 0.1 mm 0 mps 586 mmHg 89%
09:00 +18°C° 0.1 mm 1 mps 587 mmHg 80%
10:00 +20°C° 0.1 mm 1 mps 588 mmHg 72%
11:00 +20°C° 1 mm 1 mps 587 mmHg 75%
12:00 +21°C° 1 mm 1 mps 586 mmHg 79%
13:00 +19°C° 1 mm 0 mps 586 mmHg 82%
14:00 +18°C° 1.7 mm 0 mps 585 mmHg 85%
15:00 +17°C° 1.7 mm 0 mps 585 mmHg 88%
16:00 +16°C° 1.7 mm 0 mps 584 mmHg 92%
17:00 +15°C° 1.5 mm 0 mps 584 mmHg 94%
18:00 +14°C° 1.5 mm 0 mps 584 mmHg 96%
19:00 +13°C° 1.5 mm 0 mps 584 mmHg 98%
20:00 +13°C° 1 mm 0 mps 584 mmHg 98%
21:00 +13°C° 1 mm 0 mps 585 mmHg 98%
22:00 +13°C° 1 mm 0 mps 585 mmHg 98%
23:00 +13°C° 5.1 mm 0 mps 585 mmHg 98%

Day after tomorrow, 29 November, Sunday

Time Temperature Precipitation Wind Pressure Humidity
00:00 +12°C° 5.1 mm 0 mps 584 mmHg 99%
01:00 +12°C° 5.1 mm 0 mps 584 mmHg 99%
02:00 +12°C° 6.1 mm 0 mps 584 mmHg 99%
03:00 +12°C° 6.1 mm 0 mps 584 mmHg 99%
04:00 +12°C° 6.1 mm 0 mps 584 mmHg 99%
05:00 +11°C° 0.8 mm 0 mps 584 mmHg 98%
06:00 +11°C° 0.8 mm 0 mps 584 mmHg 98%
07:00 +11°C° 0.8 mm 0 mps 584 mmHg 98%
08:00 +12°C° 0.5 mm 0 mps 585 mmHg 96%
09:00 +13°C° 0.5 mm 0 mps 586 mmHg 95%
10:00 +14°C° 0.5 mm 0 mps 586 mmHg 94%
11:00 +16°C° 0.3 mm 1 mps 586 mmHg 86%
12:00 +19°C° 0.3 mm 1 mps 586 mmHg 79%
13:00 +20°C° 0.3 mm 1 mps 586 mmHg 72%
14:00 +20°C° 0.1 mm 1 mps 586 mmHg 74%
15:00 +17°C° 0.1 mm 0 mps 585 mmHg 76%
16:00 +17°C° 0.1 mm 0 mps 584 mmHg 78%
17:00 +16°C° 0.5 mm 0 mps 584 mmHg 84%
18:00 +14°C° 0.5 mm 0 mps 584 mmHg 90%
19:00 +13°C° 0.5 mm 0 mps 584 mmHg 97%
20:00 +12°C° 0.3 mm 0 mps 584 mmHg 97%
21:00 +12°C° 0.3 mm 0 mps 584 mmHg 96%
22:00 +12°C° 0.3 mm 0 mps 585 mmHg 96%
23:00 +11°C° 0.1 mm 0 mps 584 mmHg 97%

30 November, Monday

Time Temperature Precipitation Wind Pressure Humidity
00:00 +11°C° 0.1 mm 0 mps 584 mmHg 97%
01:00 +11°C° 0.1 mm 0 mps 584 mmHg 97%
02:00 +11°C° 0 mm 0 mps 583 mmHg 97%
03:00 +11°C° 0 mm 0 mps 583 mmHg 97%
04:00 +11°C° 0 mm 0 mps 583 mmHg 97%
05:00 +11°C° 0 mm 0 mps 584 mmHg 96%
06:00 +12°C° 0 mm 0 mps 584 mmHg 96%
07:00 +12°C° 0 mm 0 mps 585 mmHg 95%
08:00 +14°C° 0.1 mm 0 mps 586 mmHg 85%
09:00 +19°C° 0.1 mm 1 mps 587 mmHg 75%
10:00 +21°C° 0.1 mm 1 mps 588 mmHg 65%
11:00 +21°C° 0.8 mm 1 mps 587 mmHg 69%
12:00 +21°C° 0.8 mm 1 mps 587 mmHg 72%
13:00 +21°C° 0.8 mm 1 mps 586 mmHg 75%
14:00 +18°C° 1.8 mm 0 mps 585 mmHg 82%
15:00 +18°C° 1.8 mm 0 mps 584 mmHg 88%
16:00 +17°C° 1.8 mm 0 mps 584 mmHg 94%
17:00 +15°C° 1.6 mm 0 mps 584 mmHg 95%
18:00 +14°C° 1.6 mm 0 mps 583 mmHg 96%
19:00 +13°C° 1.6 mm 0 mps 583 mmHg 97%
20:00 +13°C° 1.6 mm 0 mps 584 mmHg 98%
21:00 +13°C° 1.6 mm 0 mps 584 mmHg 98%
22:00 +13°C° 1.6 mm 0 mps 584 mmHg 98%
23:00 +13°C° 6 mm 0 mps 584 mmHg 98%

1 December, Tuesday

Time Temperature Precipitation Wind Pressure Humidity
00:00 +12°C° 6 mm 0 mps 584 mmHg 99%
01:00 +12°C° 6 mm 0 mps 584 mmHg 99%
02:00 +12°C° 3.1 mm 0 mps 584 mmHg 99%
03:00 +12°C° 3.1 mm 0 mps 584 mmHg 99%
04:00 +12°C° 3.1 mm 0 mps 583 mmHg 99%
05:00 +12°C° 0.5 mm 0 mps 584 mmHg 99%
06:00 +12°C° 0.5 mm 0 mps 584 mmHg 99%
07:00 +12°C° 0.5 mm 0 mps 585 mmHg 98%
08:00 +13°C° 0.1 mm 0 mps 585 mmHg 95%
09:00 +14°C° 0.1 mm 0 mps 586 mmHg 91%
10:00 +15°C° 0.1 mm 0 mps 586 mmHg 88%
11:00 +16°C° 0.5 mm 0 mps 586 mmHg 84%
12:00 +19°C° 0.5 mm 1 mps 586 mmHg 80%
13:00 +20°C° 0.5 mm 1 mps 586 mmHg 75%
14:00 +19°C° 0.8 mm 1 mps 585 mmHg 82%
15:00 +18°C° 0.8 mm 1 mps 584 mmHg 88%
16:00 +18°C° 0.8 mm 1 mps 584 mmHg 94%
17:00 +16°C° 0.5 mm 1 mps 584 mmHg 95%
18:00 +14°C° 0.5 mm 1 mps 583 mmHg 97%
19:00 +13°C° 0.5 mm 1 mps 583 mmHg 98%
20:00 +13°C° 0.8 mm 1 mps 584 mmHg 98%
21:00 +12°C° 0.8 mm 0 mps 584 mmHg 98%
22:00 +12°C° 0.8 mm 0 mps 584 mmHg 98%
23:00 +12°C° 2.4 mm 0 mps 584 mmHg 98%

2 December, Wednesday

Time Temperature Precipitation Wind Pressure Humidity
00:00 +12°C° 2.4 mm 0 mps 584 mmHg 99%
01:00 +12°C° 2.4 mm 0 mps 584 mmHg 99%
02:00 +12°C° 1.9 mm 0 mps 583 mmHg 99%
03:00 +12°C° 1.9 mm 0 mps 583 mmHg 99%
04:00 +12°C° 1.9 mm 0 mps 583 mmHg 99%
05:00 +12°C° 0.6 mm 0 mps 584 mmHg 98%
06:00 +12°C° 0.6 mm 0 mps 584 mmHg 98%
07:00 +12°C° 0.6 mm 0 mps 585 mmHg 98%
08:00 +12°C° 0.2 mm 0 mps 585 mmHg 96%
09:00 +13°C° 0.2 mm 0 mps 586 mmHg 95%
10:00 +14°C° 0.2 mm 0 mps 586 mmHg 93%
11:00 +15°C° 0.2 mm 0 mps 586 mmHg 85%
12:00 +19°C° 0.2 mm 1 mps 586 mmHg 78%
13:00 +21°C° 0.2 mm 1 mps 586 mmHg 70%
14:00 +20°C° 0.9 mm 1 mps 586 mmHg 75%
15:00 +18°C° 0.9 mm 0 mps 585 mmHg 79%
16:00 +17°C° 0.9 mm 0 mps 585 mmHg 84%
17:00 +16°C° 1 mm 0 mps 584 mmHg 89%
18:00 +14°C° 1 mm 0 mps 584 mmHg 93%
19:00 +13°C° 1 mm 0 mps 584 mmHg 97%
20:00 +13°C° 0.7 mm 0 mps 585 mmHg 98%
21:00 +13°C° 0.7 mm 0 mps 585 mmHg 98%
22:00 +12°C° 0.7 mm 0 mps 585 mmHg 98%
23:00 +12°C° 0.7 mm 0 mps 585 mmHg 98%
Show more